User: anonymous   Login
Location: Unspecified
(0.0000°N, 0.0000°E)
Time: 06:09:08
(UTC+00:00)
Language:

Hubble Space Telescope - Orbit

View from above orbital plane
View from above orbital plane
View from above satellite
View from above satellite

Ground track
Ground track

The orbit data is extracted from the following two-line orbital elements,

1 20580U 90037B   16338.78890832  .00000743  00000-0  35131-4 0  9991
2 20580  28.4732 218.5176 0002779 225.7066 134.3309 15.08612896260744
Epoch (UTC): 03 December 2016 18:56:01
Eccentricity: 0.0002779
inclination: 28.4732°
perigee height: 538 km
apogee height: 542 km
right ascension of ascending node: 218.5176°
argument of perigee: 225.7066°
revolutions per day: 15.08612896
mean anomaly at epoch: 134.3309°
orbit number at epoch: 26074

The dashed part of the orbit path shows where the satellite is in the earth's shadow,  

DLR